Location: Auckland
(36.8670°S, 174.7670°E)
Time: 04:04:30
(UTC+13:00)

ISS - Pass Details

Date: 01 February 2019
Orbit: 403 x 411 km, 51.6° (Epoch: 23 February)

Event Time Altitude Azimuth Distance (km) Brightness Sun altitude
Exits shadow 03:45:55 15° 103° (ESE) 1,210 -0.9 -27.5°
Drops below altitude 10° 03:46:44 10° 111° (ESE) 1,495 -0.3 -27.4°
Sets 03:48:54 0° 121° (ESE) 2,334 1.1 -27.2°
